Tracking 21472 objects as of 22-Sep-2020
HD Live streaming from Space Station
objects crossing your sky now

TANSEI 3 DEB

Track TANSEI 3 DEB now!
10-day predictions


NORAD ID: 9982
Int'l Code: 1977-012F
Perigee: 787.4 km
Apogee: 3,757.6 km
Inclination: 65.9 °
Period: 133.3 minutes
Semi major axis: 8643 km
RCS: 0.0721 m2 (small)
Launch date: February 19, 1977
Source: Japan (JPN)
Launch site: KAGOSHIMA SPACE CENTER UNIVERSITY OF TOKYO (KSCUT)

Note: This is SATELLITE DEBRIS
aabbcc
Your satellite tracking list
Your tracking list is empty




NASA's NSSDC Master Catalog

Two Line Element Set (TLE):
1  9982U 77012F   20264.51380904 -.00000041 +00000-0 -11572-4 0  9996
2  9982 065.8984 310.4156 1718196 175.8575 185.8933 10.80357659719829
Source of the keplerian elements: AFSPC